Location: Exeidioux
(45.6312°N, 1.6819°E)
Time: 20:48:39
(UTC+00:00)

Cosmos 44 Rocket - Pass Details

Date: 03 March 2021
Orbit: 636 x 754 km, 65.1° (Epoch: 13 April)

Event Time Altitude Azimuth Distance (km) Brightness Sun altitude
Rises 18:19:44 0° 325° (NW) 3,209 7.2 -7.2°
Reaches altitude 10° 18:22:09 10° 327° (NNW) 2,285 6.4 -7.6°
Maximum altitude 18:27:25 77° 53° (NE) 778 3.4 -8.6°
Drops below altitude 10° 18:32:36 10° 140° (SE) 2,255 5.6 -9.5°
Sets 18:34:58 0° 142° (SE) 3,164 6.3 -9.9°
